Location: 5810 Zion Rd, Cleves, OH 45002, USA
(39.1922°N, 84.7113°W)
Time: 17:18:15
(UTC-05:00)

Courier 1B Rocket - Pass Details

Date: 08 December 2019
Orbit: 920 x 1202 km, 28.2° (Epoch: 18 January)

Event Time Altitude Azimuth Distance (km) Brightness Sun altitude
Rises 08:37:36 0° 241° (WSW) 3,712 7.8 7.6°
Reaches altitude 10° 08:40:41 10° 230° (SW) 2,720 7.3 8.1°
Maximum altitude 08:46:09 29° 173° (S) 1,666 7.0 8.9°
Drops below altitude 10° 08:51:26 10° 116° (ESE) 2,618 9.3 9.7°
Sets 08:54:20 0° 105° (ESE) 3,549 9.2 10.1°
